Location: Hamburg
(53.5511°N, 9.9937°E)
Time: 16:15:48
(UTC+02:00)

ISS - Pass Details

Date: 23 March 2026
Orbit: 416 x 425 km, 51.6° (Epoch: 19 April)

Event Time Altitude Azimuth Distance (km) Brightness Sun altitude
Rises 21:32:34 0° 277° (W) 2,387 0.9 -24.4°
Reaches altitude 10° 21:35:29 10° 250° (WSW) 1,514 -0.6 -24.7°
Enters shadow 21:35:56 11° 243° (WSW) 1,427 -0.9 -24.8°
